[Date Prev][Date Next][Thread Prev][Thread Next] - [Date Index][Thread Index][Author Index]
ISS KEPS
- Subject: [sarex] ISS KEPS
- From: Arthur Rowe <azrowe80@xxxxxxxxxxx>
- Date: Sat, 15 Jul 2006 10:29:56 -0400
- User-Agent: Thunderbird 1.5.0.4 (Windows/20060516)
ISS (ZARYA)
1 25544U 98067A 06196.15300926 .00009529 00000-0 63045-4 0 2965
2 25544 51.6324 43.4169 0010841 77.7548 62.6699 15.76318133437574
----
Via the sarex mailing list at AMSAT.ORG courtesy of AMSAT-NA.
To unsubscribe, send "unsubscribe sarex" to Majordomo@amsat.org
AMSAT Home